�������l�o���
Date,Time,MP-1(��Sv/h),MP-2(��Sv/h),MP-3(��Sv/h),MP-4(��Sv/h),MP-5(��Sv/h),MP-6(��Sv/h),MP-7(��Sv/h),MP-8(��Sv/h),����,����(m/s),���J
2015/01/30,00:00,1.923,3.528,3.810,3.430,3.655,1.112,1.837,2.142,��,2.5,��
2015/01/30,00:10,1.928,3.533,3.808,3.432,3.658,1.108,1.838,2.140,��,3.2,��
2015/01/30,00:20,1.925,3.530,3.807,3.435,3.658,1.110,1.838,2.145,��,3.1,��
2015/01/30,00:30,1.920,3.532,3.808,3.435,3.658,1.110,1.838,2.145,��,3.3,��
2015/01/30,00:40,1.918,3.530,3.805,3.435,3.660,1.110,1.840,2.142,��,3.5,��
2015/01/30,00:50,1.925,3.530,3.808,3.433,3.655,1.112,1.838,2.143,��쐼,3.6,��
2015/01/30,01:00,1.923,3.528,3.808,3.435,3.650,1.113,1.840,2.143,��쐼,3.7,��
2015/01/30,01:10,1.925,3.528,3.807,3.428,3.653,1.113,1.840,2.142,��,3.9,��
2015/01/30,01:20,1.927,3.527,3.805,3.430,3.653,1.112,1.840,2.142,��,4.0,��
2015/01/30,01:30,1.925,3.530,3.808,3.428,3.657,1.112,1.842,2.140,��,4.4,��
2015/01/30,01:40,1.923,3.530,3.807,3.432,3.652,1.112,1.840,2.142,��,4.3,��
2015/01/30,01:50,1.927,3.525,3.813,3.433,3.653,1.110,1.838,2.140,��쓌,3.9,��
2015/01/30,02:00,1.930,3.525,3.810,3.428,3.652,1.112,1.842,2.142,��쓌,4.0,��
2015/01/30,02:10,1.927,3.525,3.807,3.432,3.653,1.110,1.842,2.142,��쓌,3.0,��
2015/01/30,02:20,1.925,3.530,3.810,3.432,3.652,1.108,1.838,2.142,��,3.3,��
2015/01/30,02:30,1.923,3.532,3.810,3.428,3.655,1.110,1.840,2.142,��,3.2,��
2015/01/30,02:40,1.923,3.527,3.810,3.427,3.653,1.108,1.840,2.142,��,3.1,��
2015/01/30,02:50,1.927,3.527,3.812,3.433,3.653,1.110,1.840,2.142,��,3.5,��
2015/01/30,03:00,1.923,3.525,3.810,3.435,3.653,1.108,1.840,2.142,��,3.8,��
2015/01/30,03:10,1.923,3.528,3.807,3.432,3.653,1.108,1.838,2.142,��쐼,4.3,��
2015/01/30,03:20,1.925,3.527,3.808,3.433,3.653,1.112,1.838,2.140,��,4.6,��
2015/01/30,03:30,1.923,3.527,3.808,3.430,3.653,1.112,1.840,2.140,��,4.5,��
2015/01/30,03:40,1.923,3.528,3.803,3.430,3.652,1.108,1.838,2.140,��,4.7,��
2015/01/30,03:50,1.925,3.527,3.807,3.433,3.655,1.112,1.838,2.142,��,4.9,��
2015/01/30,04:00,1.927,3.525,3.805,3.432,3.653,1.110,1.838,2.143,��,4.9,��
2015/01/30,04:10,1.923,3.522,3.808,3.428,3.652,1.110,1.840,2.143,��,4.9,��
2015/01/30,04:20,1.927,3.525,3.807,3.432,3.652,1.112,1.842,2.143,��,3.6,��
2015/01/30,04:30,1.923,3.527,3.807,3.433,3.650,1.112,1.840,2.142,��,4.1,��
2015/01/30,04:40,1.922,3.528,3.807,3.435,3.648,1.110,1.843,2.142,��,5.0,��
2015/01/30,04:50,1.925,3.528,3.808,3.433,3.648,1.112,1.843,2.142,��,5.4,��
2015/01/30,05:00,1.928,3.527,3.808,3.432,3.648,1.110,1.842,2.142,��,5.7,��
2015/01/30,05:10,1.927,3.528,3.810,3.432,3.653,1.110,1.842,2.140,��,6.3,��
2015/01/30,05:20,1.925,3.530,3.812,3.432,3.653,1.110,1.843,2.140,��,5.7,��
2015/01/30,05:30,1.927,3.530,3.812,3.428,3.653,1.113,1.843,2.142,��,5.6,��
2015/01/30,05:40,1.928,3.528,3.812,3.432,3.653,1.112,1.842,2.140,��,5.2,��
2015/01/30,05:50,1.930,3.528,3.812,3.433,3.650,1.113,1.840,2.143,��,4.5,��
2015/01/30,06:00,1.927,3.530,3.812,3.428,3.652,1.112,1.840,2.142,��,5.3,��
2015/01/30,06:10,1.927,3.530,3.805,3.430,3.648,1.113,1.840,2.143,��,5.3,��
2015/01/30,06:20,1.927,3.528,3.807,3.428,3.652,1.112,1.840,2.143,��,6.7,��
2015/01/30,06:30,1.927,3.533,3.812,3.432,3.652,1.112,1.840,2.143,��,6.7,��
2015/01/30,06:40,1.925,3.533,3.808,3.433,3.653,1.113,1.843,2.143,��,7.1,��
2015/01/30,06:50,1.927,3.530,3.808,3.435,3.653,1.113,1.843,2.142,��,6.8,��
2015/01/30,07:00,1.928,3.525,3.812,3.432,3.655,1.112,1.843,2.143,��,6.6,��
2015/01/30,07:10,1.928,3.532,3.810,3.430,3.655,1.113,1.845,2.138,��,7.1,��
2015/01/30,07:20,1.932,3.528,3.808,3.433,3.655,1.115,1.843,2.138,��,7.2,��
2015/01/30,07:30,1.930,3.528,3.812,3.433,3.650,1.112,1.842,2.143,��쐼,7.5,�L
2015/01/30,07:40,1.932,3.528,3.812,3.435,3.657,1.112,1.843,2.145,��,8.6,�L
2015/01/30,07:50,1.927,3.532,3.812,3.433,3.652,1.113,1.840,2.145,��쐼,7.8,�L
2015/01/30,08:00,1.930,3.532,3.810,3.437,3.655,1.112,1.842,2.142,��쐼,7.2,�L
2015/01/30,08:10,1.930,3.527,3.810,3.433,3.648,1.112,1.843,2.142,��쐼,6.7,�L
2015/01/30,08:20,1.927,3.522,3.802,3.433,3.642,1.110,1.838,2.140,��쐼,6.5,�L
2015/01/30,08:30,1.927,3.517,3.800,3.428,3.642,1.110,1.837,2.138,��쐼,6.1,�L
2015/01/30,08:40,1.922,3.507,3.787,3.427,3.635,1.110,1.838,2.135,��쐼,5.8,�L
2015/01/30,08:50,1.918,3.488,3.770,3.415,3.625,1.107,1.835,2.130,��쐼,4.9,�L
2015/01/30,09:00,1.912,3.472,3.748,3.408,3.612,1.103,1.832,2.132,��,5.3,�L
2015/01/30,09:10,1.907,3.467,3.747,3.407,3.602,1.107,1.832,2.133,��,5.0,�L
2015/01/30,09:20,1.905,3.455,3.740,3.400,3.598,1.107,1.832,2.130,��,5.0,�L
2015/01/30,09:30,1.903,3.452,3.735,3.402,3.592,1.105,1.832,2.130,��쐼,4.9,�L
2015/01/30,09:40,1.902,3.442,3.733,3.400,3.592,1.108,1.830,2.128,��쐼,4.2,�L
2015/01/30,09:50,1.900,3.437,3.730,3.398,3.583,1.105,1.830,2.128,��,4.1,�L
2015/01/30,10:00,1.902,3.442,3.722,3.390,3.575,1.105,1.832,2.128,��쐼,3.0,�L
2015/01/30,10:10,1.897,3.427,3.715,3.387,3.567,1.107,1.825,2.122,��쐼,1.9,�L
2015/01/30,10:20,1.895,3.417,3.707,3.377,3.553,1.103,1.825,2.122,��쐼,2.6,�L
2015/01/30,10:30,1.892,3.402,3.693,3.372,3.547,1.102,1.823,2.118,�쐼,2.2,�L
2015/01/30,10:40,1.888,3.395,3.692,3.370,3.545,1.102,1.825,2.120,��쐼,2.5,�L
2015/01/30,10:50,1.888,3.388,3.688,3.363,3.535,1.100,1.820,2.118,��,1.7,�L
2015/01/30,11:00,1.887,3.385,3.683,3.357,3.532,1.100,1.822,2.118,��쐼,1.8,�L
2015/01/30,11:10,1.882,3.380,3.673,3.357,3.527,1.098,1.818,2.118,���쐼,1.5,�L
2015/01/30,11:20,1.882,3.377,3.668,3.350,3.520,1.097,1.818,2.118,��쐼,1.4,�L
2015/01/30,11:30,1.878,3.368,3.662,3.342,3.507,1.095,1.815,2.117,�쐼,1.6,�L
2015/01/30,11:40,1.878,3.358,3.647,3.335,3.497,1.095,1.810,2.112,�쐼,1.2,�L
2015/01/30,11:50,1.873,3.348,3.635,3.325,3.480,1.095,1.807,2.110,���쐼,1.1,�L
2015/01/30,12:00,1.868,3.333,3.625,3.318,3.462,1.090,1.805,2.107,���쐼,1.3,�L
2015/01/30,12:10,1.867,3.320,3.612,3.313,3.447,1.092,1.802,2.105,���쐼,1.1,�L
2015/01/30,12:20,1.865,3.310,3.600,3.305,3.432,1.088,1.798,2.102,���쐼,1.1,�L
2015/01/30,12:30,1.865,3.297,3.577,3.297,3.417,1.088,1.797,2.098,��,1.1,�L
2015/01/30,12:40,1.858,3.280,3.562,3.288,3.397,1.083,1.790,2.090,���k��,0.8,�L
2015/01/30,12:50,1.857,3.265,3.545,3.277,3.378,1.082,1.783,2.085,�k��,1.0,�L
2015/01/30,13:00,1.852,3.245,3.522,3.272,3.355,1.078,1.778,2.082,�k��,1.1,�L
2015/01/30,13:10,1.848,3.228,3.505,3.262,3.337,1.075,1.772,2.077,�k�k��,1.2,�L
2015/01/30,13:20,1.843,3.208,3.487,3.248,3.315,1.072,1.763,2.073,�k�k��,1.2,�L
2015/01/30,13:30,1.840,3.192,3.463,3.235,3.290,1.072,1.760,2.065,�k,1.2,�L
2015/01/30,13:40,1.833,3.173,3.445,3.227,3.272,1.070,1.755,2.062,�k,1.2,�L
2015/01/30,13:50,1.825,3.153,3.425,3.213,3.255,1.067,1.750,2.055,�k�k��,1.7,�L
2015/01/30,14:00,1.817,3.135,3.403,3.198,3.237,1.060,1.745,2.048,�k,1.9,�L
2015/01/30,14:10,1.813,3.113,3.377,3.187,3.213,1.057,1.737,2.045,�k,2.3,�L
2015/01/30,14:20,1.807,3.097,3.353,3.177,3.187,1.053,1.730,2.037,�k,3.1,�L
2015/01/30,14:30,1.800,3.077,3.333,3.162,3.158,1.048,1.722,2.030,�k,3.8,�L
2015/01/30,14:40,1.795,3.050,3.300,3.148,3.130,1.045,1.715,2.025,�k,3.9,�L
2015/01/30,14:50,1.790,3.033,3.275,3.135,3.103,1.040,1.707,2.018,�k,4.4,�L
2015/01/30,15:00,1.787,3.008,3.242,3.118,3.073,1.033,1.697,2.013,�k,4.5,�L
2015/01/30,15:10,1.777,2.985,3.210,3.097,3.043,1.027,1.685,2.003,�k,4.2,�L
2015/01/30,15:20,1.768,2.955,3.177,3.077,3.010,1.022,1.680,1.992,�k,4.4,�L
2015/01/30,15:30,1.760,2.928,3.148,3.057,2.975,1.017,1.672,1.978,�k�k��,4.2,�L
2015/01/30,15:40,1.753,2.905,3.118,3.032,2.947,1.010,1.660,1.968,�k�k��,4.3,�L
2015/01/30,15:50,1.738,2.878,3.078,3.012,2.912,1.002,1.648,1.957,�k�k��,4.7,�L
2015/01/30,16:00,1.727,2.850,3.043,2.982,2.870,0.998,1.635,1.947,�k�k��,4.6,�L
2015/01/30,16:10,1.708,2.818,3.002,2.958,2.827,0.988,1.620,1.938,�k�k��,5.2,�L
2015/01/30,16:20,1.695,2.783,2.962,2.920,2.790,0.983,1.607,1.927,�k�k��,6.1,�L
2015/01/30,16:30,1.682,2.753,2.927,2.887,2.753,0.977,1.597,1.922,�k�k��,7.2,�L
2015/01/30,16:40,1.668,2.722,2.890,2.857,2.723,0.967,1.585,1.912,�k��,10.5,�L
2015/01/30,16:50,1.650,2.695,2.853,2.827,2.693,0.963,1.575,1.900,�k�k��,3.4,�L
2015/01/30,17:00,1.632,2.670,2.822,2.800,2.658,0.960,1.565,1.890,�k,3.1,�L
2015/01/30,17:10,1.615,2.642,2.790,2.775,2.630,0.952,1.552,1.883,�k�k��,3.5,�L
2015/01/30,17:20,1.607,2.618,2.762,2.752,2.605,0.947,1.543,1.877,�k�k��,3.3,�L
2015/01/30,17:30,1.598,2.597,2.732,2.727,2.577,0.940,1.537,1.872,�k�k��,8.6,�L
2015/01/30,17:40,1.590,2.575,2.705,2.702,2.553,0.937,1.530,1.867,�k�k��,8.8,�L
2015/01/30,17:50,1.578,2.560,2.687,2.677,2.537,0.933,1.538,1.860,�k�k��,12.1,�L
2015/01/30,18:00,1.572,2.540,2.670,2.658,2.515,0.928,1.538,1.858,�k�k��,11.5,�L
2015/01/30,18:10,1.557,2.522,2.645,2.643,2.492,0.923,1.533,1.852,�k�k��,8.8,�L
2015/01/30,18:20,1.548,2.508,2.625,2.622,2.468,0.922,1.522,1.845,�k��,10.5,�L
2015/01/30,18:30,1.532,2.490,2.602,2.603,2.452,0.918,1.515,1.835,�k��,11.0,�L
2015/01/30,18:40,1.522,2.475,2.592,2.583,2.432,0.912,1.503,1.830,�k��,11.3,�L
2015/01/30,18:50,1.510,2.460,2.578,2.568,2.412,0.910,1.500,1.827,�k,2.6,�L
2015/01/30,19:00,1.507,2.450,2.567,2.557,2.410,0.907,1.500,1.820,�k�k��,12.9,�L
2015/01/30,19:10,1.500,2.442,2.555,2.548,2.418,0.905,1.495,1.815,�k�k��,8.8,�L
2015/01/30,19:20,1.495,2.428,2.537,2.537,2.413,0.905,1.490,1.808,�k�k��,9.6,�L
2015/01/30,19:30,1.492,2.412,2.522,2.527,2.403,0.900,1.487,1.805,�k�k��,12.6,�L
2015/01/30,19:40,1.487,2.403,2.513,2.517,2.393,0.900,1.485,1.803,�k,4.5,�L
2015/01/30,19:50,1.482,2.400,2.505,2.510,2.387,0.897,1.480,1.800,�k�k��,9.6,�L
2015/01/30,20:00,1.480,2.393,2.497,2.503,2.383,0.895,1.478,1.797,�k�k��,6.3,�L
2015/01/30,20:10,1.472,2.382,2.487,2.495,2.373,0.893,1.475,1.792,�k��,7.4,�L
2015/01/30,20:20,1.468,2.373,2.473,2.487,2.368,0.892,1.473,1.792,�k�k��,8.0,�L
2015/01/30,20:30,1.465,2.368,2.463,2.480,2.362,0.892,1.472,1.792,�k�k��,8.6,�L
2015/01/30,20:40,1.467,2.365,2.458,2.482,2.357,0.888,1.472,1.792,�k�k��,11.5,�L
2015/01/30,20:50,1.462,2.362,2.448,2.477,2.357,0.890,1.470,1.790,�k��,10.4,�L
2015/01/30,21:00,1.463,2.363,2.450,2.478,2.357,0.888,1.472,1.790,�k�k��,10.2,�L
2015/01/30,21:10,1.457,2.357,2.472,2.477,2.352,0.890,1.468,1.792,�k�k��,10.5,�L
2015/01/30,21:20,1.455,2.355,2.480,2.477,2.350,0.890,1.472,1.795,�k��,10.2,��
2015/01/30,21:30,1.457,2.348,2.477,2.472,2.348,0.888,1.473,1.795,�k��,10.4,��
2015/01/30,21:40,1.455,2.347,2.475,2.472,2.352,0.888,1.475,1.793,�k��,10.5,��
2015/01/30,21:50,1.452,2.345,2.475,2.463,2.353,0.885,1.477,1.797,�k��,10.7,��
2015/01/30,22:00,1.453,2.342,2.472,2.462,2.348,0.883,1.482,1.798,�k��,11.2,�L
2015/01/30,22:10,1.452,2.337,2.475,2.455,2.348,0.883,1.483,1.800,�k��,10.7,��
2015/01/30,22:20,1.448,2.332,2.477,2.453,2.347,0.883,1.485,1.800,�k��,10.5,�L
2015/01/30,22:30,1.445,2.332,2.473,2.448,2.345,0.883,1.483,1.800,�k��,6.5,�L
2015/01/30,22:40,1.443,2.328,2.470,2.445,2.345,0.883,1.485,1.802,�k��,6.8,�L
2015/01/30,22:50,1.437,2.328,2.468,2.437,2.342,0.885,1.487,1.805,�k�k��,3.9,�L
2015/01/30,23:00,1.437,2.327,2.467,2.435,2.338,0.883,1.490,1.805,�k��,7.4,�L
2015/01/30,23:10,1.435,2.323,2.462,2.437,2.340,0.885,1.490,1.807,�k��,4.2,��
2015/01/30,23:20,1.430,2.323,2.462,2.430,2.342,0.885,1.495,1.808,�k��,9.1,��
2015/01/30,23:30,1.430,2.322,2.463,2.428,2.342,0.885,1.495,1.808,�k��,8.0,��
2015/01/30,23:40,1.430,2.322,2.462,2.425,2.342,0.885,1.497,1.810,�k�k��,4.5,��
2015/01/30,23:50,1.427,2.323,2.463,2.427,2.338,0.887,1.500,1.812,�k��,7.4,��
